EW9968 Weather Reports


Display with metric or nautical units.
time (UTC)temp
F
wind
direction
speed
MPH
gust
MPH
rain 1hr
in
rain 24hr
in
rain mn
in
humidity
%
barometer
mb
20220818230001 76 0.0 0.0 0.00 0.00 0.00 53 1009.5
20220818224607 77 0.0 1.0 0.00 0.00 0.00 52 1009.6
20220818223105 77 0.0 2.0 0.00 0.00 0.00 51 1009.3
20220818221620 78 0.0 2.0 0.00 0.00 0.00 49 1009.2
20220818220056 78 0.0 1.0 0.00 0.00 0.00 49 1009.1
20220818214605 78 0.0 3.0 0.00 0.00 0.00 48 1008.9
20220818213054 79 0.0 3.0 0.00 0.00 0.00 48 1009.0
20220818211601 79 1.0 6.0 0.00 0.00 0.00 48 1008.9
20220818210102 79 0.0 6.0 0.00 0.00 0.00 46 1008.7
20220818204554 79 0.0 4.0 0.00 0.00 0.00 46 1008.7
20220818203053 80 1.0 5.0 0.00 0.00 0.00 45 1008.4
20220818201602 81 0.0 4.0 0.00 0.00 0.00 47 1008.5
20220818200053 81 0.0 4.0 0.00 0.00 0.00 46 1008.4
20220818194549 80 0.0 3.0 0.00 0.00 0.00 46 1008.4
20220818193049 80 0.0 4.0 0.00 0.00 0.00 46 1008.3
20220818191559 79 0.0 5.0 0.00 0.00 0.00 46 1008.4
20220818190127 80 0.0 3.0 0.00 0.00 0.00 47 1008.2
20220818184543 80 0.0 6.0 0.00 0.00 0.00 47 1008.4
20220818183057 80 0.0 5.0 0.00 0.00 0.00 47 1008.5
20220818181539 80 0.0 4.0 0.00 0.00 0.00 49 1008.5
20220818180100 79 0.0 11.0 0.00 0.00 0.00 47 1008.5
20220818174538 79 0.0 5.0 0.00 0.00 0.00 49 1008.2
20220818173043 80 0.0 4.0 0.00 0.00 0.00 48 1008.4
20220818171549 80 0.0 5.0 0.00 0.00 0.00 48 1008.3
20220818170034 80 1.0 5.0 0.00 0.00 0.00 50 1008.1
20220818164534 79 0.0 2.0 0.00 0.00 0.00 51 1008.0
20220818163032 79 0.0 2.0 0.00 0.00 0.00 51 1008.1
20220818161538 79 0.0 7.0 0.00 0.00 0.00 52 1008.2
20220818160100 80 0.0 3.0 0.00 0.00 0.00 52 1008.0
20220818154542 79 1.0 5.0 0.00 0.00 0.00 52 1008.2
20220818153022 77 0.0 3.0 0.00 0.00 0.00 56 1008.2
20220818151523 77 1.0 3.0 0.00 0.00 0.00 58 1008.1
20220818150017 75 0.0 6.0 0.00 0.00 0.00 60 1008.3
20220818144516 74 0.0 6.0 0.00 0.00 0.00 64 1008.4
20220818143020 72 0.0 5.0 0.00 0.00 0.00 67 1008.4
20220818141514 71 0.0 4.0 0.00 0.00 0.00 69 1008.6
20220818140004 70 0.0 8.0 0.00 0.00 0.00 70 1008.5
20220818134508 69 0.0 4.0 0.00 0.00 0.00 71 1008.7
20220818133100 69 0.0 4.0 0.00 0.00 0.00 72 1008.6
20220818131558 69 0.0 5.0 0.00 0.00 0.00 75 1008.7
20220818130128 67 0.0 5.0 0.00 0.00 0.00 77 1008.7
20220818124559 67 0.0 2.0 0.00 0.00 0.00 78 1008.6
20220818123051 66 0.0 2.0 0.00 0.00 0.00 80 1008.6
20220818121549 64 0.0 1.0 0.00 0.00 0.00 84 1008.6
20220818120048 0 0.0 0.0 0.00 0.00 0.00 1008.5
20220818114538 0 0.0 0.0 0.00 0.00 0.00 1008.6
20220818113039 0 0.0 0.0 0.00 0.00 0.00 1008.5
20220818111531 0 0.0 0.0 0.00 0.00 0.00 1008.5
20220818110038 0 0.0 0.0 0.00 0.00 0.00 1008.4
20220818104521 0 0.0 0.0 0.00 0.00 0.00 1008.4
20220818103016 0 0.0 0.0 0.00 0.00 0.00 1008.3
20220818101520 0 0.0 0.0 0.00 0.00 0.00 1008.3
20220818100016 0 0.0 0.0 0.00 0.00 0.00 1008.1
20220818094503 0 0.0 0.0 0.00 0.00 0.00 1008.2
20220818093136 0 0.0 0.0 0.00 0.00 0.00 1008.0
20220818091647 0 0.0 0.0 0.00 0.00 0.00 1008.0
20220818090059 0 0.0 0.0 0.00 0.00 0.00 1008.0
20220818084601 0 0.0 0.0 0.00 0.00 0.00 1008.1
20220818083041 0 0.0 0.0 0.00 0.00 0.00 1008.1
20220818081538 0 0.0 0.0 0.00 0.00 0.00 1007.9
20220818080039 0 0.0 0.0 0.00 0.00 0.00 1008.0
20220818074534 0 0.0 0.0 0.00 0.00 0.00 1007.9
20220818073024 0 0.0 0.0 0.00 0.00 0.00 1007.8
20220818071520 0 0.0 0.0 0.00 0.00 0.00 1008.0
20220818070015 0 0.0 0.0 0.00 0.00 0.00 1008.0
20220818064521 0 0.0 0.0 0.00 0.00 0.00 1007.9
20220818063019 0 0.0 0.0 0.00 0.00 0.00 1008.1
20220818061505 0 0.0 0.0 0.00 0.00 0.00 1008.1
20220818060100 0 0.0 0.0 0.00 0.00 0.00 1008.3
20220818054608 0 0.0 0.0 0.00 0.00 0.00 1008.3
20220818053056 0 0.0 0.0 0.00 0.00 0.00 1008.5
20220818051545 0 0.0 0.0 0.00 0.00 0.00 1008.6
20220818050109 0 0.0 0.0 0.00 0.00 0.00 1008.5
20220818044542 0 0.0 0.0 0.00 0.00 0.00 1008.6
20220818043032 0 0.0 0.0 0.00 0.00 0.00 1008.8
20220818041532 0 0.0 0.0 0.00 0.00 0.00 1008.8
20220818040032 0 0.0 0.0 0.00 0.00 0.00 1009.0
20220818034526 0 0.0 0.0 0.00 0.00 0.00 1009.0
20220818033018 0 0.0 0.0 0.00 0.00 0.00 1009.4
20220818031510 0 0.0 0.0 0.00 0.00 0.00 1009.8
20220818030006 68 0.0 0.0 0.00 0.00 0.00 73 1009.9
20220818024504 68 0.0 0.0 0.00 0.00 0.00 74 1010.3
20220818023007 68 0.0 0.0 0.00 0.00 0.00 74 1010.4
20220818021510 68 0.0 0.0 0.00 0.00 0.00 73 1010.4
20220818020101 67 0.0 1.0 0.00 0.00 0.00 73 1010.6
20220818014659 67 0.0 0.0 0.00 0.00 0.00 71 1010.9
20220818013058 67 0.0 0.0 0.00 0.00 0.00 70 1011.0
20220818011606 67 0.0 0.0 0.00 0.00 0.00 69 1011.2
20220818010056 67 0.0 0.0 0.00 0.00 0.00 70 1011.1
20220818004601 67 0.0 0.0 0.00 0.00 0.00 69 1011.3
20220818003105 67 0.0 0.0 0.00 0.00 0.00 69 1011.4
20220818001553 68 0.0 0.0 0.00 0.00 0.00 68 1011.4
20220818000105 68 0.0 0.0 0.00 0.00 0.00 67 1011.5
20220817234614 69 0.0 0.0 0.00 0.00 0.00 67 1011.7
20220817233107 69 0.0 0.0 0.00 0.00 0.00 66 1011.8
20220817231556 70 0.0 1.0 0.00 0.00 0.00 65 1011.9